Погода в Карахаллы

Турция     38°19′08″N   29°31′46″E
темп.,
°C
ветер,
м/с
пор.,
м/с
влажн.,
%
обл.,
%
осадки,
мм/ч
давл.,
гПа
погр.,
м
18 апреля, вс
вс1800:00+18ююв3343100 0.1 101541
03:00+16юв2252100 0.2 101528
06:00+15ююв1157100 0.0 101714
09:00+18зюз51047100 0.1 10181129
12:00+20зюз3642100 0.0 10171181
15:00+23зсз81032100 0.0 10161886
18:00+19с7648100 0.0 1016518
21:00+14ссв1265100 0.0 101811
19 апреля, пн
пн1900:00+15юв2159100 0.0 101711
03:00+14св0062100 0.0 101611
06:00+14сз0062100 0.0 101511
09:00+16юв225398 0.0 1014158
12:00+22юз21130100 0.0 10111953
15:00+25юз5182193 0.0 10073044
18:00+22зюз121327100 0.0 10061190
21:00+12ссз4679100 0.0 1010378
20 апреля, вт
вт2000:00+11сз1175100 0.0 1009201
03:00+10зсз238215 0.1 1009124
06:00+8юз22750 0.0 101113
09:00+12юз58350 0.0 10111397
12:00+14зюз89330 0.0 10121613
15:00+16з89325 0.0 10122064
18:00+15зсз77355 0.0 10121815
21:00+10ссз48580 0.0 1015190
21 апреля, ср
ср2100:00+8ссз12661 0.0 101711
03:00+6ссз11700 0.0 101710
06:00+5св11709 0.0 101810
09:00+10ссв014957 0.0 1018524
12:00+14зсз22290 0.0 10171773
15:00+17зсз4523100 0.0 10162450
18:00+16зсз5424100 0.0 10162371
21:00+11ссз334284 0.0 101937
22 апреля, чт
чт2200:00+9сз11535 0.0 102010
03:00+7зсз11565 0.0 102010
06:00+6св116023 0.0 102010
09:00+12в01435 0.0 1020385
12:00+16зюз11270 0.0 10201730
15:00+18зсз332261 0.0 10182146
18:00+18сз43238 0.0 10181835
21:00+13ссз22355 0.0 101920